Location: Taylor Dark Sky Site
(39.1017°N, 87.9564°W)
Time: 09:56:53
(UTC-06:00)

Amateur Radio Satellites - All Passes

Search period start: 23 November 2014 09:26
Search period end: 24 November 2014 09:26
Location: Taylor Dark Sky Site, 39.1017°N, 87.9564°W

Satellite Date Start Highest point End Downlink Frequencies (MHz)
Time Altitude Azimuth
DUCHIFAT 1 23 Nov 09:28:14 09:32:08 36° 71° (ENE) 09:36:02 145.980
UNISAT 6 23 Nov 09:31:51 09:36:03 59° 74° (ENE) 09:40:16 437.425
AAUSAT CUBESAT 2 23 Nov 09:39:06 09:43:08 45° 287° (WNW) 09:47:10 437.432
CANX-2 23 Nov 09:39:57 09:43:34 27° 290° (WNW) 09:47:11 2200.000
VELOX 1 23 Nov 09:40:27 09:43:57 23° 95° (E) 09:47:25 145.980
DOVE 4 23 Nov 09:43:59 09:48:02 52° 286° (WNW) 09:52:09 437.250
NANOSAT C BR1 23 Nov 09:46:46 09:50:58 60° 74° (ENE) 09:55:10 145.865
ZACube-1 23 Nov 09:49:23 09:53:27 46° 99° (E) 09:57:34 437.345
COMPASS 1 23 Nov 09:52:33 09:56:12 28° 290° (WNW) 09:59:50 437.405
HUMSAT D 23 Nov 09:56:03 09:59:48 32° 97° (E) 10:03:34 437.325/437.525
QB50P1 23 Nov 09:56:10 10:00:26 78° 76° (ENE) 10:04:42 145.935-145.965
DELFI C3 23 Nov 09:59:46 10:03:52 62° 285° (WNW) 10:07:57 145.870
ANTELSAT 23 Nov 10:00:12 10:04:27 64° 259° (W) 10:08:42 437.575/2403.000
AISAT 23 Nov 10:04:13 10:08:26 42° 99° (E) 10:12:36 437.250
50 SAT 23 Nov 10:05:27 10:09:10 34° 98° (E) 10:12:52 437.505
HO-68 23 Nov 10:07:02 10:13:25 36° 296° (WNW) 10:19:46 435.675
GOMX 1 23 Nov 10:12:49 10:15:47 19° 292° (WNW) 10:18:46 467.674
CUTE 1.7 & AOD 2 23 Nov 10:16:28 10:18:23 13° 296° (WNW) 10:20:19 437.475
POPSAT HIP 1 23 Nov 10:20:40 10:24:51 54° 260° (W) 10:29:02 437.405
GONETS M04 23 Nov 10:21:20 10:27:34 21° 295° (WNW) 10:33:52
BUGSAT 1 23 Nov 10:22:58 10:27:12 61° 259° (W) 10:31:25 437.445
FUNcube-1 23 Nov 10:25:15 10:29:26 67° 285° (WNW) 10:33:41 145.935
UKube-1 23 Nov 10:27:43 10:31:34 32° 290° (WNW) 10:35:24 .
BRITE-PL 23 Nov 10:28:23 10:28:39 10° 297° (WNW) 10:28:55 437.365/2234.400
CUBEBUG 1 23 Nov 10:28:59 10:32:43 27° 96° (E) 10:36:25 437.445
CUBEBUG 2 23 Nov 10:37:17 10:41:08 35° 288° (WNW) 10:45:02 437.445
Oscar 11 23 Nov 10:41:57 10:45:07 20° 293° (WNW) 10:48:16 145.826/435.025
CINEMA 3 23 Nov 10:43:25 10:46:28 20° 292° (WNW) 10:49:34 145.822/145.860
UWE-3 23 Nov 10:43:57 10:47:46 34° 288° (WNW) 10:51:39 435.000/436.395/437.385
POLYITAN 1 23 Nov 10:53:17 10:56:41 23° 265° (W) 11:00:07 437.675
QB50P2 23 Nov 10:56:43 10:59:59 21° 265° (W) 11:03:16 145.880/145.840
TIGRISAT 23 Nov 10:58:40 11:01:09 15° 267° (W) 11:03:37 435.000
DX 1 23 Nov 11:01:24 11:03:49 15° 296° (WNW) 11:06:13 434.975-435.025
ESTCUBE 1 23 Nov 11:03:52 11:08:26 72° 102° (ESE) 11:12:56 437.505/2401.250
DUCHIFAT 1 23 Nov 11:05:13 11:08:07 18° 266° (W) 11:11:00 145.980
SHINDAISAT 23 Nov 11:05:49 11:06:03 10° 308° (NW) 11:06:17 437.305
UNISAT 6 23 Nov 11:12:15 11:13:13 11° 269° (W) 11:14:11 437.425
VELOX 1 23 Nov 11:16:40 11:20:32 30° 291° (WNW) 11:24:23 145.980
NANOSAT C BR1 23 Nov 11:26:21 11:27:13 11° 269° (W) 11:28:05 145.865
ZACube-1 23 Nov 11:27:09 11:29:28 15° 294° (WNW) 11:31:48 437.345
HUMSAT D 23 Nov 11:32:25 11:35:24 19° 292° (WNW) 11:38:24 437.325/437.525
50 SAT 23 Nov 11:41:30 11:44:14 18° 293° (WNW) 11:46:59 437.505
AISAT 23 Nov 11:41:51 11:44:43 17° 295° (WNW) 11:47:35 437.250
Oscar 19 23 Nov 11:50:26 11:54:54 32° 68° (ENE) 11:59:23 437.125/150
TISAT 1 23 Nov 12:04:20 12:08:34 83° 103° (ESE) 12:12:46 437.305
SPROUT 23 Nov 12:04:45 12:09:03 73° 102° (ESE) 12:13:18 437.525
CUBEBUG 1 23 Nov 12:05:26 12:08:59 25° 292° (WNW) 12:12:31 437.445
SO-50 23 Nov 12:09:52 12:14:06 29° 49° (NE) 12:18:20 436.795
BEESAT 23 Nov 12:13:21 12:15:55 14° 92° (E) 12:18:28 436.000
AUBIESAT-1 23 Nov 12:21:28 12:25:22 23° 99° (E) 12:29:10 437.475
M-CUBED/EXP-1 PRIME 23 Nov 12:24:21 12:28:32 27° 100° (E) 12:32:38 437.505
ITAMSAT 1 23 Nov 12:36:39 12:41:20 35° 69° (ENE) 12:46:01 435.822/435.867
ESTCUBE 1 23 Nov 12:43:18 12:44:40 11° 298° (WNW) 12:46:02 437.505/2401.250
YUBILEINY 23 Nov 12:43:33 12:51:17 34° 72° (ENE) 12:58:56 435.215
Gurwin Techsat 1B 23 Nov 12:52:00 12:56:25 28° 67° (ENE) 13:00:51 435.225
ITUPSAT 1 23 Nov 13:05:30 13:10:11 50° 100° (E) 13:14:49 437.325
CUSAT 1 23 Nov 13:07:12 13:10:07 77° 281° (W) 13:12:44 437.405
SWISSCUBE 23 Nov 13:17:33 13:22:22 75° 103° (ESE) 13:27:08 437.505
DANDE 23 Nov 13:20:08 13:23:10 60° 279° (W) 13:25:48 436.750
KKS-1 23 Nov 13:26:58 13:29:49 17° 93° (E) 13:32:39 437.445
Oscar 19 23 Nov 13:29:48 13:34:11 29° 264° (W) 13:38:36 437.125/150
AO-7 23 Nov 13:36:02 13:42:16 25° 55° (NE) 13:48:31 29.400- 29.500
HORYU 2 23 Nov 13:39:00 13:42:51 30° 69° (ENE) 13:46:44 437.375
BEESAT 23 Nov 13:49:24 13:54:06 56° 287° (WNW) 13:58:45 436.000
SO-50 23 Nov 13:50:14 13:54:42 37° 246° (WSW) 13:59:11 436.795
AUBIESAT-1 23 Nov 13:55:50 14:00:24 40° 294° (WNW) 14:04:55 437.475
M-CUBED/EXP-1 PRIME 23 Nov 13:59:05 14:03:32 35° 295° (WNW) 14:07:57 437.505
ITAMSAT 1 23 Nov 14:16:25 14:20:49 27° 264° (W) 14:25:15 435.822/435.867
STARS 23 Nov 14:27:41 14:31:59 53° 100° (E) 14:36:16 437.465
Gurwin Techsat 1B 23 Nov 14:31:22 14:36:12 36° 263° (W) 14:41:05 435.225
MaSat-1 23 Nov 14:34:16 14:36:06 15° 108° (ESE) 14:37:51 437.345
YUBILEINY 23 Nov 14:40:02 14:48:18 50° 271° (W) 14:56:31 435.215
PHONESAT 2.4 23 Nov 14:40:46 14:43:22 18° 147° (SSE) 14:45:59 2401.200-2431.200
ITUPSAT 1 23 Nov 14:44:32 14:47:39 17° 296° (WNW) 14:50:46 437.325
JAS-2 23 Nov 14:50:31 14:56:03 22° 59° (ENE) 15:01:41 435.910
RS-15 23 Nov 14:51:16 15:00:10 30° 104° (ESE) 15:08:59 29.354- 29.394
SWISSCUBE 23 Nov 14:57:46 14:59:34 12° 299° (WNW) 15:01:23 437.505
KKS-1 23 Nov 15:02:28 15:06:38 41° 288° (WNW) 15:10:48 437.445
VERMONT LUNAR 23 Nov 15:02:37 15:05:55 33° 153° (SSE) 15:09:13 437.305
O/OREOS (USA 219) 23 Nov 15:13:44 15:17:17 23° 59° (ENE) 15:20:51 437.305
HORYU 2 23 Nov 15:16:02 15:19:32 23° 265° (W) 15:23:03 437.375
AO-7 23 Nov 15:25:56 15:34:12 77° 254° (WSW) 15:42:34 29.400- 29.500
MOZHAYETS 4 23 Nov 15:47:54 15:50:40 16° 92° (E) 15:53:26
STARS 23 Nov 16:05:45 16:08:01 14° 296° (WNW) 16:10:17 437.465
MaSat-1 23 Nov 16:08:16 16:10:36 20° 299° (WNW) 16:12:46 437.345
PHONESAT 2.4 23 Nov 16:18:05 16:21:47 68° 162° (SSE) 16:25:29 2401.200-2431.200
JAS-2 23 Nov 16:32:37 16:40:06 81° 257° (WSW) 16:48:02 435.910
Cubesat XI-IV 23 Nov 16:33:26 16:38:07 32° 68° (ENE) 16:42:48 437.490
VERMONT LUNAR 23 Nov 16:40:37 16:44:15 83° 349° (N) 16:47:54 437.305
O/OREOS (USA 219) 23 Nov 16:52:44 16:56:43 32° 256° (WSW) 17:00:41 437.305
RS-15 23 Nov 17:00:35 17:11:31 71° 305° (NW) 17:22:29 29.354- 29.394
CUTE-I 23 Nov 17:14:49 17:20:10 74° 74° (ENE) 17:25:32 437.470
CUBESAT XI-V 23 Nov 17:23:14 17:24:01 10° 89° (E) 17:24:48 437.345
MOZHAYETS 4 23 Nov 17:23:39 17:28:09 49° 287° (WNW) 17:32:37
AO-7 23 Nov 17:24:47 17:28:12 13° 271° (W) 17:31:37 29.400- 29.500
PHONESAT 2.4 23 Nov 17:56:56 18:00:39 69° 359° (N) 18:04:21 2401.200-2431.200
PRISM 23 Nov 17:58:21 18:02:36 74° 103° (ESE) 18:06:49 437.425
Cubesat XI-IV 23 Nov 18:13:22 18:18:07 32° 263° (W) 18:22:53 437.490
VERMONT LUNAR 23 Nov 18:19:14 18:22:52 73° 6° (N) 18:26:30 437.305
JAS-2 23 Nov 18:22:27 18:26:12 14° 275° (W) 18:30:02 435.910
STRAND 1 23 Nov 18:23:31 18:28:27 46° 99° (E) 18:33:19 437.568
GONETS M04 23 Nov 18:33:06 18:41:11 38° 73° (ENE) 18:49:10
HO-68 23 Nov 18:47:03 18:53:02 30° 62° (ENE) 18:59:02 435.675
AIST 1 23 Nov 18:50:13 18:53:26 20° 88° (E) 18:56:41
CUBESAT XI-V 23 Nov 18:57:16 19:01:57 71° 285° (WNW) 19:06:33 437.345
CANX-2 23 Nov 18:57:28 19:00:02 16° 66° (ENE) 19:02:37 2200.000
CUTE-I 23 Nov 18:58:27 19:00:45 13° 270° (W) 19:03:03 437.470
COMPASS 1 23 Nov 19:09:15 19:11:29 14° 65° (ENE) 19:13:44 437.405
DOVE 4 23 Nov 19:13:45 19:15:46 13° 65° (ENE) 19:17:44 437.250
RS-15 23 Nov 19:17:54 19:26:17 24° 333° (NNW) 19:34:48 29.354- 29.394
PCSat 23 Nov 19:22:29 19:27:34 43° 111° (ESE) 19:32:40 145.827
CUTE 1.7 & AOD 2 23 Nov 19:31:03 19:34:51 34° 71° (ENE) 19:38:40 437.475
PHONESAT 2.4 23 Nov 19:35:49 19:39:33 78° 196° (SSW) 19:43:15 2401.200-2431.200
GOMX 1 23 Nov 19:41:06 19:45:29 34° 72° (ENE) 19:49:37 467.674
BEESAT 3 23 Nov 19:43:41 19:47:05 26° 112° (ESE) 19:50:33 437.485
UKube-1 23 Nov 19:46:59 19:49:48 17° 65° (ENE) 19:52:37 .
BRITE-PL 23 Nov 19:55:42 20:00:50 68° 75° (ENE) 20:05:34 437.365/2234.400
BEESAT 2 23 Nov 19:56:39 20:00:19 32° 114° (ESE) 20:04:03 435.950
VERMONT LUNAR 23 Nov 19:57:49 20:01:20 47° 203° (SSW) 20:04:49 437.305
Oscar 11 23 Nov 19:59:32 20:02:59 24° 69° (ENE) 20:06:26 145.826/435.025
CUBEBUG 2 23 Nov 20:00:08 20:02:24 14° 66° (ENE) 20:04:39 437.445
STRAND 1 23 Nov 20:03:34 20:07:16 21° 296° (WNW) 20:10:58 437.568
UWE-3 23 Nov 20:05:52 20:08:05 14° 66° (ENE) 20:10:18 435.000/436.395/437.385
CINEMA 3 23 Nov 20:06:59 20:10:44 27° 70° (ENE) 20:14:22 145.822/145.860
SEEDS 23 Nov 20:07:00 20:11:10 79° 76° (ENE) 20:15:23 437.485
DX 1 23 Nov 20:18:28 20:22:31 38° 71° (ENE) 20:26:35 434.975-435.025
AIST 2 23 Nov 20:19:38 20:23:15 28° 113° (ESE) 20:26:56 435.215
AIST 1 23 Nov 20:26:59 20:30:52 31° 284° (WNW) 20:34:48
AAUSAT CUBESAT 2 23 Nov 20:29:08 20:33:17 77° 258° (WSW) 20:37:28 437.432
GONETS M04 23 Nov 20:29:50 20:38:03 46° 272° (W) 20:46:13
CANX-2 23 Nov 20:31:39 20:35:38 41° 262° (W) 20:39:39 2200.000
HO-68 23 Nov 20:33:23 20:40:21 53° 259° (W) 20:47:23 435.675
VELOX 1 23 Nov 20:37:57 20:41:08 19° 66° (ENE) 20:44:19 145.980
COMPASS 1 23 Nov 20:42:50 20:46:49 46° 261° (W) 20:50:51 437.405
ZACube-1 23 Nov 20:44:59 20:48:45 32° 71° (ENE) 20:52:29 437.345
DELFI C3 23 Nov 20:47:22 20:51:24 71° 76° (ENE) 20:55:29 145.870
HUMSAT D 23 Nov 20:48:11 20:51:17 21° 68° (ENE) 20:54:24 437.325/437.525
DOVE 4 23 Nov 20:48:25 20:53:06 62° 259° (W) 20:57:32 437.250
50 SAT 23 Nov 20:54:16 20:57:13 20° 68° (ENE) 21:00:10 437.505
AISAT 23 Nov 21:01:33 21:05:37 35° 70° (ENE) 21:09:41 437.250
PCSat 23 Nov 21:06:33 21:11:07 27° 309° (NW) 21:15:43 145.827
CUTE 1.7 & AOD 2 23 Nov 21:07:56 21:10:52 18° 267° (W) 21:13:49 437.475
PHONESAT 2.4 23 Nov 21:15:06 21:18:02 22° 211° (SSW) 21:20:58 2401.200-2431.200
GOMX 1 23 Nov 21:19:46 21:23:37 23° 265° (W) 21:27:18 467.674
FUNcube-1 23 Nov 21:20:13 21:24:28 83° 77° (ENE) 21:28:40 145.935
UKube-1 23 Nov 21:21:30 21:25:38 42° 261° (W) 21:29:47 .
BEESAT 3 23 Nov 21:21:39 21:25:13 28° 309° (NW) 21:28:51 437.485
CUBEBUG 1 23 Nov 21:24:47 21:28:10 22° 67° (ENE) 21:31:33 437.445
UNISAT 6 23 Nov 21:26:36 21:28:52 14° 92° (E) 21:31:09 437.425
CUBEBUG 2 23 Nov 21:34:34 21:38:45 47° 260° (W) 21:42:50 437.445
BEESAT 2 23 Nov 21:35:17 21:38:39 24° 311° (NW) 21:42:04 435.950
Oscar 11 23 Nov 21:35:22 21:39:01 27° 264° (W) 21:42:43 145.826/435.025
NANOSAT C BR1 23 Nov 21:36:22 21:37:08 10° 91° (E) 21:37:54 145.865
RS-15 23 Nov 21:37:32 21:44:25 18° 10° (N) 21:51:24 29.354- 29.394
BRITE-PL 23 Nov 21:37:33 21:39:37 12° 268° (W) 21:41:39 437.365/2234.400
VERMONT LUNAR 23 Nov 21:38:14 21:39:16 11° 217° (SW) 21:40:17 437.305
UWE-3 23 Nov 21:40:08 21:44:16 47° 261° (W) 21:48:20 435.000/436.395/437.385
CINEMA 3 23 Nov 21:44:16 21:47:54 24° 264° (W) 21:51:27 145.822/145.860
QB50P1 23 Nov 21:44:37 21:46:47 14° 92° (E) 21:48:57 145.935-145.965
ANTELSAT 23 Nov 21:53:44 21:57:33 28° 96° (E) 22:01:26 437.575/2403.000
DX 1 23 Nov 21:55:52 21:58:53 18° 266° (W) 22:01:54 434.975-435.025
AIST 2 23 Nov 21:58:11 22:01:50 27° 310° (NW) 22:05:33 435.215
ESTCUBE 1 23 Nov 22:02:29 22:06:57 58° 74° (ENE) 22:11:26 437.505/2401.250
BUGSAT 1 23 Nov 22:07:47 22:10:50 20° 94° (E) 22:13:51 437.445
POPSAT HIP 1 23 Nov 22:07:56 22:11:28 25° 96° (E) 22:14:58 437.405
VELOX 1 23 Nov 22:13:16 22:17:26 38° 262° (W) 22:21:38 145.980
ZACube-1 23 Nov 22:22:08 22:25:11 19° 266° (W) 22:28:13 437.345
HUMSAT D 23 Nov 22:23:19 22:26:56 29° 263° (W) 22:30:34 437.325/437.525
50 SAT 23 Nov 22:28:49 22:32:22 29° 263° (W) 22:35:54 437.505
ISS 23 Nov 22:35:38 22:36:39 11° 128° (SE) 22:37:40 145.825
AISAT 23 Nov 22:38:58 22:42:19 21° 266° (W) 22:45:41 437.250
POLYITAN 1 23 Nov 22:39:26 22:43:37 62° 101° (E) 22:47:48 437.675
QB50P2 23 Nov 22:42:28 22:46:41 67° 101° (ESE) 22:50:53 145.880/145.840
TIGRISAT 23 Nov 22:49:16 22:53:40 72° 285° (WNW) 22:58:08 435.000
DUCHIFAT 1 23 Nov 22:50:10 22:54:24 82° 102° (ESE) 22:58:36 145.980
TISAT 1 23 Nov 22:55:51 23:00:01 53° 74° (ENE) 23:04:11 437.305
SPROUT 23 Nov 22:57:57 23:02:06 48° 73° (ENE) 23:06:16 437.525
CUBEBUG 1 23 Nov 23:00:18 23:04:20 33° 263° (W) 23:08:22 437.445
UNISAT 6 23 Nov 23:01:37 23:05:55 51° 287° (WNW) 23:10:17 437.425
NANOSAT C BR1 23 Nov 23:09:14 23:13:23 59° 286° (WNW) 23:17:32 145.865
AUBIESAT-1 23 Nov 23:10:28 23:13:36 22° 61° (ENE) 23:16:57 437.475
M-CUBED/EXP-1 PRIME 23 Nov 23:13:41 23:17:02 26° 63° (ENE) 23:20:37 437.505
QB50P1 23 Nov 23:18:53 23:22:55 45° 287° (WNW) 23:26:56 145.935-145.965
BEESAT 23 Nov 23:19:18 23:22:09 16° 63° (ENE) 23:25:00 436.000
ANTELSAT 23 Nov 23:30:37 23:34:16 26° 291° (WNW) 23:37:58 437.575/2403.000
ESTCUBE 1 23 Nov 23:42:13 23:44:10 13° 269° (W) 23:46:08 437.505/2401.250
BUGSAT 1 23 Nov 23:42:49 23:46:21 29° 290° (WNW) 23:49:51 437.445
POPSAT HIP 1 23 Nov 23:43:51 23:47:17 25° 291° (WNW) 23:50:42 437.405
CUSAT 1 23 Nov 23:44:22 23:48:49 65° 81° (E) 23:54:50 437.405
RS-15 23 Nov 23:50:58 00:01:15 39° 43° (NE) 00:11:52 29.354- 29.394
DANDE 23 Nov 23:59:31 00:03:50 76° 81° (E) 00:09:45 436.750
Oscar 19 24 Nov 00:05:06 00:06:52 12° 90° (E) 00:08:37 437.125/150
ISS 24 Nov 00:09:36 00:12:52 71° 323° (NW) 00:16:09 145.825
ITUPSAT 1 24 Nov 00:11:18 00:15:57 51° 72° (ENE) 00:20:37 437.325
MaSat-1 24 Nov 00:13:55 00:15:13 14° 59° (ENE) 00:16:32 437.345
POLYITAN 1 24 Nov 00:17:42 00:19:03 11° 297° (WNW) 00:20:23 437.675
QB50P2 24 Nov 00:21:14 00:22:02 11° 297° (WNW) 00:22:50 145.880/145.840
SWISSCUBE 24 Nov 00:23:04 00:27:51 75° 75° (ENE) 00:32:40 437.505
KKS-1 24 Nov 00:25:12 00:27:36 15° 64° (ENE) 00:30:01 437.445
TISAT 1 24 Nov 00:34:29 00:36:09 12° 269° (W) 00:37:50 437.305
SPROUT 24 Nov 00:36:15 00:38:27 14° 268° (W) 00:40:39 437.525
AUBIESAT-1 24 Nov 00:44:57 00:48:25 30° 260° (W) 00:52:11 437.475
M-CUBED/EXP-1 PRIME 24 Nov 00:48:47 00:52:02 25° 261° (W) 00:55:32 437.505
ITAMSAT 1 24 Nov 00:52:27 00:54:40 13° 90° (E) 00:56:53 435.822/435.867
BEESAT 24 Nov 00:54:49 00:59:31 55° 259° (W) 01:04:14 436.000
Gurwin Techsat 1B 24 Nov 01:11:32 01:12:55 11° 89° (E) 01:14:17 435.225
STARS 24 Nov 01:23:57 01:28:05 41° 72° (ENE) 01:32:13 437.465
CUSAT 1 24 Nov 01:29:42 01:31:53 13° 268° (W) 01:34:19 437.405
Oscar 19 24 Nov 01:41:33 01:46:43 76° 285° (WNW) 01:51:52 437.125/150
YUBILEINY 24 Nov 01:42:57 01:50:57 41° 87° (E) 01:58:55 435.215
ISS 24 Nov 01:48:00 01:50:00 15° 341° (NNW) 01:52:00 145.825
MaSat-1 24 Nov 01:48:57 01:49:40 11° 252° (WSW) 01:50:24 437.345
ITUPSAT 1 24 Nov 01:51:13 01:54:07 16° 268° (W) 01:57:02 437.325
KKS-1 24 Nov 01:59:27 02:03:48 53° 260° (W) 02:08:10 437.445
RS-15 24 Nov 02:03:14 02:14:20 67° 245° (WSW) 02:25:57 29.354- 29.394
SWISSCUBE 24 Nov 02:05:27 02:06:13 10° 270° (W) 02:06:59 437.505
JUGNU 24 Nov 02:16:30 02:18:05 11° 182° (S) 02:19:40 437.505
SRMSAT 24 Nov 02:23:32 02:24:30 10° 174° (S) 02:25:29 437.500
ITAMSAT 1 24 Nov 02:29:29 02:34:39 70° 286° (WNW) 02:39:46 435.822/435.867
Gurwin Techsat 1B 24 Nov 02:48:08 02:53:28 82° 285° (WNW) 02:58:46 435.225
MOZHAYETS 4 24 Nov 02:49:55 02:52:12 14° 64° (ENE) 02:54:29
STARS 24 Nov 03:01:53 03:04:44 17° 267° (W) 03:07:35 437.465
HORYU 2 24 Nov 03:07:37 03:12:07 74° 103° (ESE) 03:16:36 437.375
AO-7 24 Nov 03:29:03 03:36:48 40° 99° (E) 03:44:28 29.400- 29.500
YUBILEINY 24 Nov 03:39:25 03:47:38 42° 286° (WNW) 03:55:52 435.215
JAS-2 24 Nov 03:46:48 03:51:00 17° 86° (E) 03:54:55 435.910
SO-50 24 Nov 04:03:27 04:07:57 83° 302° (WNW) 04:12:37 436.795
BEESAT 3 24 Nov 04:05:06 04:07:34 15° 44° (NE) 04:10:02 437.485
SRMSAT 24 Nov 04:11:28 04:12:45 11° 185° (S) 04:14:01 437.500
PCSat 24 Nov 04:11:35 04:16:17 29° 52° (NE) 04:20:57 145.827
BEESAT 2 24 Nov 04:18:22 04:21:18 18° 46° (NE) 04:24:12 435.950
RS-15 24 Nov 04:20:30 04:24:34 13° 264° (W) 04:28:41 29.354- 29.394
MOZHAYETS 4 24 Nov 04:24:23 04:28:53 59° 260° (W) 04:33:28
CUBESAT XI-V 24 Nov 04:26:36 04:27:22 10° 61° (ENE) 04:28:08 437.345
Gurwin Techsat 1B 24 Nov 04:31:41 04:32:33 10° 302° (WNW) 04:33:26 435.225
AIST 2 24 Nov 04:43:02 04:45:54 17° 45° (NE) 04:48:44 435.215
HORYU 2 24 Nov 04:47:04 04:48:10 11° 298° (WNW) 04:49:15 437.375
PRISM 24 Nov 04:48:10 04:52:11 47° 73° (ENE) 04:56:14 437.425
Cubesat XI-IV 24 Nov 04:53:32 04:55:52 13° 90° (E) 04:58:10 437.490
ISS 24 Nov 05:03:12 05:05:32 18° 22° (NNE) 05:07:51 145.825
AO-7 24 Nov 05:21:46 05:29:34 46° 297° (WNW) 05:37:22 29.400- 29.500
O/OREOS (USA 219) 24 Nov 05:24:40 05:28:37 31° 104° (ESE) 05:32:34 437.305
JAS-2 24 Nov 05:29:45 05:36:57 78° 286° (WNW) 05:43:16 435.910
CUTE-I 24 Nov 05:33:37 05:38:21 32° 97° (E) 05:43:02 437.470
STRAND 1 24 Nov 05:38:12 05:43:15 60° 73° (ENE) 05:48:19 437.568
BEESAT 3 24 Nov 05:42:04 05:46:12 62° 242° (WSW) 05:50:17 437.485
SO-50 24 Nov 05:47:17 05:49:16 13° 321° (NW) 05:51:17 436.795
PCSat 24 Nov 05:54:45 05:59:46 40° 249° (WSW) 06:04:46 145.827
BEESAT 2 24 Nov 05:55:47 05:59:51 48° 244° (WSW) 06:03:51 435.950
CUBESAT XI-V 24 Nov 05:59:22 06:04:05 84° 258° (WSW) 06:08:50 437.345
AIST 2 24 Nov 06:20:39 06:24:52 55° 243° (WSW) 06:29:00 435.215
PRISM 24 Nov 06:25:54 06:27:59 13° 268° (W) 06:30:04 437.425
Cubesat XI-IV 24 Nov 06:31:09 06:36:28 73° 286° (WNW) 06:41:45 437.490
AIST 1 24 Nov 06:35:00 06:39:20 56° 80° (E) 06:43:35
ISS 24 Nov 06:39:13 06:42:31 81° 220° (SW) 06:45:49 145.825
O/OREOS (USA 219) 24 Nov 07:04:23 07:08:01 24° 300° (WNW) 07:11:39 437.305
CUTE-I 24 Nov 07:13:43 07:18:19 31° 293° (WNW) 07:22:54 437.470
JAS-2 24 Nov 07:17:12 07:20:36 14° 306° (NW) 07:23:51 435.910
STRAND 1 24 Nov 07:19:53 07:22:48 15° 268° (W) 07:25:44 437.568
GONETS M04 24 Nov 07:32:29 07:40:39 45° 88° (E) 07:48:52
SEEDS 24 Nov 07:54:28 07:56:51 15° 92° (E) 07:59:14 437.485
HO-68 24 Nov 08:02:33 08:08:51 32° 97° (E) 08:15:05 435.675
BRITE-PL 24 Nov 08:02:47 08:05:46 19° 94° (E) 08:08:45 437.365/2234.400
AAUSAT CUBESAT 2 24 Nov 08:14:57 08:17:56 19° 94° (E) 08:20:54 437.432
AIST 1 24 Nov 08:15:11 08:16:25 11° 276° (W) 08:17:38
CANX-2 24 Nov 08:18:21 08:22:17 35° 97° (E) 08:26:13 2200.000
UNISAT 6 24 Nov 08:26:46 08:27:50 11° 63° (ENE) 08:28:55 437.425
COMPASS 1 24 Nov 08:28:13 08:31:57 30° 96° (E) 08:35:41 437.405
DELFI C3 24 Nov 08:31:53 08:33:09 11° 91° (E) 08:34:24 145.870
QB50P1 24 Nov 08:39:07 08:39:28 10° 63° (ENE) 08:39:49 145.935-145.965
DOVE 4 24 Nov 08:48:57 08:52:46 34° 98° (E) 08:56:39 437.250
ANTELSAT 24 Nov 08:52:50 08:56:05 22° 68° (ENE) 08:59:20 437.575/2403.000
CUTE 1.7 & AOD 2 24 Nov 08:53:02 08:57:20 82° 102° (ESE) 09:01:38 437.475
BUGSAT 1 24 Nov 08:58:11 09:00:29 14° 65° (ENE) 09:02:46 437.445
POPSAT HIP 1 24 Nov 09:00:49 09:03:45 18° 67° (ENE) 09:06:41 437.405
UKube-1 24 Nov 09:10:39 09:14:36 33° 98° (E) 09:18:31 .
FUNcube-1 24 Nov 09:11:09 09:13:54 17° 93° (E) 09:16:39 145.935
